Location: Potomac
(46.8816°N, 113.5795°W)
Time: 08:33:18
(UTC+00:00)

NANOSAT C BR1 - Pass Details

Date: 29 June 2022
Orbit: 584 x 599 km, 98.0° (Epoch: 17 August)

Event Time Altitude Azimuth Distance (km) Brightness Sun altitude
Rises 08:55:47 0° 24° (NNE) 2,849 ? -17.7°
Reaches altitude 10° 08:58:16 10° 38° (NE) 1,944 ? -17.6°
Maximum altitude 09:01:47 25° 95° (E) 1,219 ? -17.4°
Enters shadow 09:04:22 15° 142° (SE) 1,651 ? -17.2°
